Location: *
(34.6780°N, 135.8310°E)
Time: 18:02:13
(UTC+00:00)

NOSS 3-4 (C) - Pass Details

Date: 18 October 2019
Orbit: 908 x 1304 km, 63.4° (Epoch: 31 October)

Event Time Altitude Azimuth Distance (km) Brightness Sun altitude
Exits shadow 19:06:10 59° 240° (WSW) 1,047 3.3 -25.1°
Maximum altitude 19:07:15 74° 302° (WNW) 955 3.2 -24.9°
Drops below altitude 10° 19:13:27 10° 28° (NNE) 2,691 6.2 -23.6°
Sets 19:16:06 0° 30° (NNE) 3,685 7.0 -23.1°
